Skip Page Navigation
NASA JPL Caltech
NASA Logo - Jet Propulsion Laboratory + View the NASA Portal
+ Center for Near-Earth Object Studies
JPL Home Earth Solar System Stars & Galaxies Technology
JPL Solar System Dynamics
BODIES ORBITS EPHEMERIDES TOOLS PHYSICAL DATA DISCOVERY FAQ SITE MAP
IMPORTANT: The SSD Announcement email list is now available. Major changes are coming in the near future, including possible hostname and/or URL changes. To be notified of such changes, subscribe to this email list.

Please visit this page for more details.


JPL Small-Body Database Browser
Search: [ help ]  
413784 (2006 HA45)
Classification: Main-belt Asteroid          SPK-ID: 2413784
Ephemeris | Orbit Diagram | Orbital Elements | Mission Design | Physical Parameters | Discovery Circumstances | Close-Approach Data ]

[ hide orbit diagram ]

For accurate long-term ephemerides, please instead use our Horizons system.This orbit viewer was implemented using two-body methods, and hence should not be used for determining accurate long-term trajectories (over several years or decades) or planetary encounter circumstances.


[ revert to old Java-based viewer ]

Orbital Elements at Epoch 2459000.5 (2020-May-31.0) TDB
Reference: JPL 10 (heliocentric ecliptic J2000)
 Element Value Uncertainty (1-sigma)   Units 
e .139852075464272 9.7909e-08  
a 3.137393190046107 4.4219e-08 au
q 2.698622240870685 3.1233e-07 au
i 15.77943158186863 1.3887e-05 deg
node 192.6411373271631 2.3341e-05 deg
peri 36.48007726634029 4.1757e-05 deg
M 171.4278914396645 3.5543e-05 deg
tp 2458033.935514562709
(2017-Oct-07.43551456)
0.00019324 TDB
period 2029.793470801065
5.56
4.2912e-05
1.175e-07
d
yr
n .1773579456130207 3.7495e-09 deg/d
Q 3.576164139221528 5.0403e-08 au
  Orbit Determination Parameters
   # obs. used (total)      128  
   data-arc span      7181 days (19.66 yr)  
   first obs. used      2000-03-04  
   last obs. used      2019-11-01  
   planetary ephem.      DE431  
   SB-pert. ephem.      SB431-N16  
   condition code      0  
   norm. resid. RMS      .62391  
   source      ORB  
   producer      Otto Matic  
   solution date      2019-Dec-05 01:21:12  

Additional Information
 Earth MOID = 1.70755 au 
 Jupiter MOID = 1.43995 au 
 T_jup = 3.138 
[ hide covariance matrix ]
Orbital Elements at Epoch 2456981.5 (2014-Nov-20.0) TDB
Reference: JPL 10 (heliocentric ecliptic J2000)
 Element Value Uncertainty (1-sigma)   Units 
e .1408251564535207 9.6756e-08  
q 2.694243080353128 3.0822e-07 au
tp 2456009.800231249423
(2012-Mar-23.30023125)
0.00018778 TDB
node 192.6642992662875 2.3332e-05 deg
peri 37.24591929355167 4.2168e-05 deg
i 15.78431603617839 1.3893e-05 deg
  Orbit Determination Parameters
   # obs. used (total)      128  
   data-arc span      7181 days (19.66 yr)  
   first obs. used      2000-03-04  
   last obs. used      2019-11-01  
   planetary ephem.      DE431  
   SB-pert. ephem.      SB431-N16  
   condition code      0  
   norm. resid. RMS      .62391  
   source      ORB  
   producer      Otto Matic  
   solution date      2019-Dec-05 01:21:12  

Additional Information
 Jupiter MOID = 1.43995 au 
 T_jup = 3.138 
Orbit Covariance (6×6)
  e q tp node peri i
e 9.361726535122978E-15 -2.959558519373911E-14 -1.118528754431771E-11 -5.174435369995166E-15 -2.06067379984523E-12 -4.930209895061026E-14
q -2.959558519373911E-14 9.499770159076963E-14 3.55355565586714E-11 1.693202646880743E-14 6.692760621393028E-12 1.599651575994278E-13
tp -1.118528754431771E-11 3.55355565586714E-11 3.526195561922764E-8 1.923205818897206E-11 6.576663897528079E-9 4.482816220835299E-11
node -5.174435369995166E-15 1.693202646880743E-14 1.923205818897206E-11 5.443684080569014E-10 -5.195249585211931E-10 8.752531649197326E-12
peri -2.06067379984523E-12 6.692760621393028E-12 6.576663897528079E-9 -5.195249585211931E-10 1.778113034576294E-9 -5.569133720244221E-14
i -4.930209895061026E-14 1.599651575994278E-13 4.482816220835299E-11 8.752531649197326E-12 -5.569133720244221E-14 1.930206493424688E-10

Ephemeris | Orbit Diagram | Orbital Elements | Mission Design | Physical Parameters | Discovery Circumstances | Close-Approach Data ]

Physical Parameter Table
Parameter Symbol Value Units Sigma Reference Notes
absolute magnitude H 15.9   n/a MPO503525  

413784 (2006 HA45)          Discovered 2006-Apr-25 by Spacewatch at Kitt Peak
Reference: Last Updated: 2014-11-10

[ show close-approach data ]
Alternate Designations
 2006 HA45 = 2008 RW101 
Ephemeris | Orbit Diagram | Orbital Elements | Mission Design | Physical Parameters | Discovery Circumstances | Close-Approach Data ]
ABOUT SSD CREDITS/AWARDS PRIVACY/COPYRIGHT GLOSSARY LINKS
FirstGov 2020-Feb-20 00:00 UT
(server date/time)  
NASA Home Page
Site Manager:   Ryan S. Park
Webmaster  Alan B. Chamberlin